TAP2112 LPPT-LPFR

Flight info

Callsign TAP2112
Flight time 0h 34m
Altitude 23000
Route DUZOP DCT ODEMI
Aircraft E190/M-SDE3GILORVW/S

Departure

Time 2026-05-07 22:32
Airport Lisbon Humberto Delgado Airport (LPPT)

Arrival

Time 2026-05-07 23:06
Airport Faro - Gago Coutinho International Airport (LPFR)
Time Latitude Longitude Altitude Speed Heading
2026-05-07 21:56 38.76937 -9.13063 336 ft 0 kts 77°
2026-05-07 22:20 38.76936 -9.13074 336 ft 3 kts 79°
2026-05-07 22:20 38.76933 -9.13099 335 ft 3 kts 88°
2026-05-07 22:20 38.76933 -9.13125 333 ft 3 kts 104°
2026-05-07 22:20 38.76940 -9.13148 333 ft 3 kts 135°
2026-05-07 22:21 38.76951 -9.13158 335 ft 1 kts 168°
2026-05-07 22:21 38.76955 -9.13159 336 ft 0 kts 168°
2026-05-07 22:25 38.76954 -9.13159 337 ft 1 kts 168°
2026-05-07 22:25 38.76903 -9.13145 338 ft 14 kts 168°
2026-05-07 22:26 38.76863 -9.13134 337 ft 0 kts 168°
2026-05-07 22:26 38.76857 -9.13132 337 ft 3 kts 168°
2026-05-07 22:27 38.76821 -9.13123 335 ft 7 kts 168°
2026-05-07 22:27 38.76785 -9.13147 337 ft 6 kts 240°
2026-05-07 22:27 38.76774 -9.13206 339 ft 7 kts 259°
2026-05-07 22:27 38.76763 -9.13275 340 ft 8 kts 258°
2026-05-07 22:28 38.76750 -9.13349 353 ft 9 kts 255°
2026-05-07 22:28 38.76716 -9.13409 343 ft 9 kts 217°
2026-05-07 22:28 38.76664 -9.13456 344 ft 9 kts 224°
2026-05-07 22:28 38.76646 -9.13540 349 ft 11 kts 258°
2026-05-07 22:29 38.76629 -9.13643 349 ft 13 kts 258°
2026-05-07 22:29 38.76609 -9.13758 345 ft 14 kts 259°
2026-05-07 22:29 38.76586 -9.13890 352 ft 14 kts 256°
2026-05-07 22:29 38.76572 -9.13982 348 ft 11 kts 252°
2026-05-07 22:30 38.76522 -9.14064 345 ft 12 kts 227°
2026-05-07 22:30 38.76496 -9.14176 349 ft 16 kts 279°
2026-05-07 22:30 38.76545 -9.14334 332 ft 21 kts 294°
2026-05-07 22:30 38.76570 -9.14407 333 ft 4 kts 292°
2026-05-07 22:31 38.76586 -9.14423 331 ft 2 kts
2026-05-07 22:31 38.76601 -9.14413 332 ft 4 kts 24°
2026-05-07 22:31 38.76662 -9.14378 334 ft 25 kts 24°
2026-05-07 22:31 38.77030 -9.14182 352 ft 90 kts 22°
2026-05-07 22:32 38.77804 -9.13770 363 ft 149 kts 24°
2026-05-07 22:32 38.78883 -9.13205 664 ft 179 kts 19°
2026-05-07 22:32 38.80085 -9.12522 1333 ft 197 kts 27°
2026-05-07 22:32 38.81247 -9.11604 2246 ft 198 kts 30°
2026-05-07 22:33 38.82448 -9.10682 2963 ft 204 kts 27°
2026-05-07 22:33 38.83710 -9.09759 3673 ft 213 kts 28°
2026-05-07 22:33 38.85062 -9.08774 4216 ft 229 kts 28°
2026-05-07 22:33 38.86453 -9.07763 4850 ft 237 kts 29°
2026-05-07 22:34 38.87790 -9.06495 4954 ft 238 kts 46°
2026-05-07 22:34 38.88580 -9.04688 4692 ft 233 kts 75°
2026-05-07 22:34 38.88567 -9.02531 3926 ft 258 kts 111°
2026-05-07 22:34 38.87555 -9.00578 4390 ft 270 kts 135°
2026-05-07 22:35 38.86089 -8.99053 5382 ft 271 kts 148°
2026-05-07 22:35 38.84526 -8.97728 6527 ft 268 kts 149°
2026-05-07 22:35 38.83006 -8.96338 7485 ft 269 kts 147°
2026-05-07 22:35 38.81504 -8.94915 8431 ft 269 kts 147°
2026-05-07 22:36 38.80003 -8.93475 9365 ft 270 kts 147°
2026-05-07 22:36 38.78508 -8.91997 10286 ft 272 kts 146°
2026-05-07 22:36 38.76996 -8.90521 11181 ft 274 kts 146°
2026-05-07 22:36 38.75471 -8.89047 12084 ft 276 kts 147°
2026-05-07 22:37 38.73931 -8.87555 13057 ft 279 kts 147°
2026-05-07 22:37 38.72378 -8.86050 14011 ft 282 kts 147°
2026-05-07 22:37 38.70801 -8.84505 14834 ft 288 kts 148°
2026-05-07 22:37 38.69174 -8.82959 15680 ft 295 kts 148°
2026-05-07 22:38 38.67504 -8.81384 16514 ft 301 kts 149°
2026-05-07 22:38 38.65794 -8.79788 17342 ft 307 kts 149°
2026-05-07 22:38 38.64049 -8.78154 18160 ft 314 kts 149°
2026-05-07 22:38 38.62265 -8.76514 18922 ft 317 kts 150°
2026-05-07 22:39 38.60478 -8.74892 19704 ft 321 kts 150°
2026-05-07 22:39 38.58648 -8.73235 20467 ft 324 kts 150°
2026-05-07 22:39 38.56852 -8.71590 21776 ft 298 kts 148°
2026-05-07 22:39 38.55256 -8.70012 22947 ft 296 kts 149°
2026-05-07 22:40 38.53510 -8.68455 22941 ft 313 kts 152°
2026-05-07 22:40 38.51650 -8.66876 22964 ft 326 kts 152°
2026-05-07 22:40 38.49715 -8.65316 22973 ft 332 kts 153°
2026-05-07 22:40 38.47738 -8.63759 22997 ft 336 kts 153°
2026-05-07 22:41 38.45735 -8.62202 23016 ft 338 kts 154°
2026-05-07 22:41 38.43712 -8.60650 23008 ft 340 kts 154°
2026-05-07 22:41 38.41667 -8.59111 22970 ft 341 kts 154°
2026-05-07 22:41 38.39620 -8.57582 22951 ft 340 kts 154°
2026-05-07 22:42 38.37580 -8.56052 22955 ft 340 kts 154°
2026-05-07 22:42 38.35538 -8.54528 22957 ft 341 kts 154°
2026-05-07 22:42 38.33490 -8.53003 22946 ft 341 kts 155°
2026-05-07 22:42 38.31439 -8.51478 22947 ft 342 kts 155°
2026-05-07 22:43 38.29385 -8.49954 22950 ft 342 kts 155°
2026-05-07 22:43 38.27331 -8.48432 22943 ft 341 kts 155°
2026-05-07 22:43 38.25284 -8.46903 22990 ft 342 kts 154°
2026-05-07 22:43 38.23222 -8.45379 22992 ft 342 kts 155°
2026-05-07 22:44 38.21166 -8.43859 22996 ft 342 kts 155°
2026-05-07 22:44 38.19130 -8.42356 22999 ft 342 kts 155°
2026-05-07 22:44 38.17072 -8.40838 23003 ft 342 kts 155°
2026-05-07 22:44 38.15012 -8.39319 23004 ft 342 kts 155°
2026-05-07 22:45 38.12954 -8.37805 22983 ft 342 kts 155°
2026-05-07 22:45 38.10887 -8.36289 22962 ft 342 kts 155°
2026-05-07 22:45 38.08828 -8.34781 22951 ft 341 kts 155°
2026-05-07 22:45 38.06769 -8.33266 22969 ft 343 kts 154°
2026-05-07 22:46 38.04694 -8.31737 22963 ft 344 kts 155°
2026-05-07 22:46 38.02619 -8.30214 22953 ft 344 kts 155°
2026-05-07 22:46 38.00542 -8.28691 22949 ft 344 kts 155°
2026-05-07 22:46 37.98494 -8.27190 22950 ft 344 kts 155°
2026-05-07 22:47 37.96422 -8.25672 22956 ft 344 kts 155°
2026-05-07 22:47 37.94344 -8.24151 22950 ft 344 kts 155°
2026-05-07 22:47 37.92270 -8.22635 22957 ft 344 kts 155°
2026-05-07 22:47 37.90199 -8.21120 22953 ft 344 kts 155°
2026-05-07 22:48 37.88796 -8.20094 22961 ft 344 kts 155°
2026-05-07 22:48 37.86746 -8.18598 22955 ft 344 kts 155°
2026-05-07 22:48 37.84670 -8.17082 22954 ft 344 kts 155°
2026-05-07 22:48 37.82591 -8.15566 22955 ft 344 kts 155°
2026-05-07 22:49 37.80513 -8.14053 22960 ft 345 kts 155°
2026-05-07 22:49 37.78435 -8.12539 22961 ft 345 kts 155°
2026-05-07 22:49 37.76353 -8.11024 22961 ft 345 kts 155°
2026-05-07 22:49 37.74273 -8.09511 22962 ft 344 kts 155°
2026-05-07 22:50 37.72196 -8.08001 22960 ft 344 kts 155°
2026-05-07 22:50 37.70118 -8.06492 22959 ft 344 kts 155°
2026-05-07 22:50 37.68043 -8.04985 22959 ft 344 kts 155°
2026-05-07 22:50 37.65997 -8.03499 22956 ft 342 kts 155°
2026-05-07 22:51 37.63908 -8.01991 22256 ft 353 kts 156°
2026-05-07 22:51 37.61792 -8.00481 21174 ft 346 kts 156°
2026-05-07 22:51 37.59711 -7.99021 20078 ft 338 kts 157°
2026-05-07 22:51 37.57669 -7.97602 18991 ft 332 kts 157°
2026-05-07 22:52 37.55659 -7.96212 17830 ft 327 kts 158°
2026-05-07 22:52 37.53681 -7.94854 16561 ft 322 kts 157°
2026-05-07 22:52 37.51725 -7.93514 15303 ft 318 kts 156°
2026-05-07 22:52 37.49786 -7.92182 14044 ft 316 kts 155°
2026-05-07 22:53 37.47852 -7.90863 12667 ft 315 kts 154°
2026-05-07 22:53 37.45931 -7.89528 11272 ft 315 kts 153°
2026-05-07 22:53 37.44009 -7.88186 9892 ft 317 kts 152°
2026-05-07 22:53 37.42080 -7.86829 8473 ft 318 kts 151°
2026-05-07 22:54 37.40225 -7.85519 8161 ft 298 kts 151°
2026-05-07 22:54 37.38463 -7.84250 7725 ft 284 kts 150°
2026-05-07 22:54 37.36793 -7.83035 7349 ft 270 kts 149°
2026-05-07 22:54 37.35180 -7.81862 7008 ft 267 kts 149°
2026-05-07 22:55 37.33600 -7.80701 6660 ft 266 kts 149°
2026-05-07 22:55 37.32013 -7.79533 6314 ft 263 kts 149°
2026-05-07 22:55 37.30437 -7.78367 5972 ft 261 kts 148°
2026-05-07 22:55 37.28877 -7.77209 5609 ft 260 kts 149°
2026-05-07 22:56 37.27321 -7.76045 5279 ft 260 kts 149°
2026-05-07 22:56 37.25762 -7.74876 4914 ft 263 kts 149°
2026-05-07 22:56 37.24216 -7.73720 4933 ft 257 kts 149°
2026-05-07 22:56 37.22681 -7.72563 4945 ft 258 kts 149°
2026-05-07 22:57 37.21134 -7.71394 4951 ft 260 kts 149°
2026-05-07 22:57 37.19573 -7.70218 4943 ft 263 kts 149°
2026-05-07 22:57 37.18000 -7.69035 4941 ft 264 kts 149°
2026-05-07 22:57 37.16421 -7.67848 4945 ft 264 kts 149°
2026-05-07 22:58 37.14860 -7.66673 4946 ft 265 kts 149°
2026-05-07 22:58 37.13284 -7.65487 4941 ft 265 kts 149°
2026-05-07 22:58 37.11711 -7.64306 4997 ft 263 kts 149°
2026-05-07 22:58 37.10138 -7.63122 4997 ft 264 kts 149°
2026-05-07 22:59 37.08474 -7.62159 5036 ft 263 kts 164°
2026-05-07 22:59 37.06632 -7.62096 4573 ft 269 kts 194°
2026-05-07 22:59 37.04926 -7.62963 3843 ft 262 kts 208°
2026-05-07 22:59 37.03306 -7.63997 3173 ft 257 kts 208°
2026-05-07 23:00 37.01810 -7.64890 3501 ft 223 kts 207°
2026-05-07 23:00 37.00394 -7.65735 4031 ft 229 kts 206°
2026-05-07 23:00 36.98958 -7.66726 3691 ft 239 kts 219°
2026-05-07 23:00 36.97866 -7.68216 3578 ft 225 kts 242°
2026-05-07 23:01 36.97405 -7.69967 3566 ft 206 kts 271°
2026-05-07 23:01 36.97763 -7.71660 3517 ft 200 kts 296°
2026-05-07 23:01 36.98235 -7.73239 3515 ft 196 kts 280°
2026-05-07 23:01 36.98403 -7.74944 3364 ft 201 kts 278°
2026-05-07 23:02 36.98615 -7.76685 3335 ft 198 kts 281°
2026-05-07 23:02 36.98854 -7.78192 3381 ft 154 kts 280°
2026-05-07 23:02 36.98994 -7.79401 3237 ft 131 kts 279°
2026-05-07 23:02 36.99128 -7.80513 2915 ft 123 kts 281°
2026-05-07 23:03 36.99270 -7.81573 2651 ft 133 kts 284°
2026-05-07 23:03 36.99448 -7.82757 2533 ft 141 kts 282°
2026-05-07 23:03 36.99607 -7.83983 2330 ft 141 kts 285°
2026-05-07 23:03 36.99830 -7.85173 2241 ft 142 kts 287°
2026-05-07 23:04 36.99991 -7.86390 2035 ft 139 kts 281°
2026-05-07 23:04 37.00106 -7.87532 1810 ft 131 kts 284°
2026-05-07 23:04 37.00285 -7.88672 1567 ft 137 kts 287°
2026-05-07 23:04 37.00493 -7.89849 1280 ft 140 kts 285°
2026-05-07 23:05 37.00659 -7.91075 1005 ft 140 kts 281°
2026-05-07 23:05 37.00825 -7.92217 789 ft 131 kts 280°
2026-05-07 23:05 37.01002 -7.93355 530 ft 133 kts 279°
2026-05-07 23:05 37.01149 -7.94478 273 ft 127 kts 281°
2026-05-07 23:06 37.01299 -7.95560 105 ft 125 kts 280°
2026-05-07 23:06 37.01445 -7.96586 21 ft 106 kts 279°
2026-05-07 23:06 37.01544 -7.97295 21 ft 60 kts 281°
2026-05-07 23:06 37.01584 -7.97576 18 ft 21 kts 279°
2026-05-07 23:07 37.01610 -7.97770 18 ft 21 kts 280°
2026-05-07 23:07 37.01678 -7.97854 19 ft 15 kts 15°
2026-05-07 23:07 37.01750 -7.97747 19 ft 18 kts 68°
2026-05-07 23:07 37.01754 -7.97488 20 ft 50 kts 100°
2026-05-07 23:08 37.01662 -7.96835 19 ft 71 kts 101°
2026-05-07 23:08 37.01605 -7.96429 19 ft 37 kts 101°
2026-05-07 23:08 37.01566 -7.96161 19 ft 21 kts 97°
2026-05-07 23:08 37.01677 -7.96083 19 ft 21 kts 356°
2026-05-07 23:09 37.01745 -7.96253 19 ft 42 kts 280°
2026-05-07 23:09 37.01822 -7.96785 19 ft 50 kts 277°
2026-05-07 23:09 37.01855 -7.96979 19 ft 4 kts 318°
2026-05-07 23:09 37.01864 -7.96945 19 ft 12 kts 128°
2026-05-07 23:10 37.01823 -7.96793 19 ft 31 kts 99°
2026-05-07 23:10 37.01716 -7.96717 19 ft 0 kts 192°